    Observer details:
    033 Karl Schwarzschild Observatory, Tautenburg.  Observers C. Hoegner, B. 
       Stecklum.  Measurer B. Stecklum.  1.34-m f/3 Schmidt + CCD.
    104 San Marcello Pistoiese.  Observers P. Bacci, M. Maestripieri.  Measurers P. 
       Bacci, L. Tesi, G. Fagioli.  0.60-m reflector + CCD.
    203 GiaGa Observatory.  Observers S. Foglia, G. Galli.  Measurer G. Galli.  
        0.36-m f/5.76 Schmidt-Cassegrain + CCD.
    586 Pic du Midi.  Observers F. Colas, M. Birlan, A. Sonka, F. Sevres.  1.05-m 
       f/8.6 reflector + CCD.
    587 Sormano.  Observers F. Manca, P. Sicoli, A. Testa.  Measurer P. Sicoli.  
        0.5-m f/6.8 reflector + CCD.
    595 Farra d'Isonzo.  Observers L. Bittesini, E. Pettarin, M. Zorzin.  Measurer 
       E. Pettarin.  0.40-m f/5.15 reflector + CCD.
    654 Table Mountain Observatory, Wrightwood-PHMC.  Observers P. Choi, N. Saini, 
       C. Zhai, R. Trahan, M. Shao.
    C77 Bernezzo Observatory.  Observer A. Mantero.  0.25-m f/4.0 reflector + CCD.
    C95 SATINO Remote Observatory, Haute Provence.  Observer J. Jahn.  0.60-m f/3.2 
       Newtonian reflector + CCD.
    H21 Astronomical Research Observatory, Westfield.  Observer R. Holmes.  
        Measurers S. Foglia, L. Buzzi, T. Linder, R. Holmes.  0.61-m f/4.5 
       astrograph + CCD.
    I52 Steward Observatory, Mt. Lemmon Station.  Observer D. Rankin.  Measurers B. 
       M. Africano, E. J. Christensen, G. A. Farneth, D. C. Fuls, A. R. Gibbs, A. 
       D. Grauer, H. Groeller, R. A. Kowalski, S. M. Larson, G. J. Leonard, T. A. 
       Pruyne, D. Rankin, R. L. Seaman, F. C. Shelly.  1.0-m reflector + CCD.
    I93 St Pardon de Conques.  Observer F. Losse.  0.40-m f/3.7 reflector + CCD.
    K19 PASTIS Observatory, Banon.  Observer C. Demeautis.
    K61 Rokycany Observatory.  Observer M. Adamovsky.  0.51-m f/6.8 reflector + CCD.
    K63 G. Pascoli Observatory, Castelvecchio Pascoli.  Observer R. Bacci.  0.41-m 
       f/3.2 Newtonian reflector + CCD.
    K88 GINOP-KHK, Piszkesteto.  Observer K. Sarneczky.  0.60-m Schmidt + CCD.
    T05 ATLAS-HKO, Haleakala.  Observers L. Denneau, J. Tonry, A. Heinze, H. 
       Weiland, H. Flewelling.  Measurers L. Denneau, J. Tonry, A. Heinze, H. 
       Weiland, H. Flewelling, B. Stalder, A. Fitzsimmons, J. Robinson, D. Young, 
       N. Erasmus.  0.5-m reflector + CCD.
    W34 Squirrel Valley Observatory, Columbus.  Observer R. L. Flynn.  0.35-m f/1.9 
       Schmidt-Cassegrain + CCD.
    
    Orbital elements:
    2019 SF9                                                 Earth MOID = 0.0048 AU
    Epoch 2019 Apr. 27.0 TT = JDT 2458600.5                 Bell
    M 165.43223              (2000.0)            P               Q
    n   0.90563637     Peri.   64.04820     +0.36731824     -0.92926365
    a   1.0580353      Node     4.92831     +0.60152998     +0.20510003
    e   0.0942164      Incl.   27.24124     +0.70939340     +0.30725077
    P   1.09           H   24.4           G   0.15           U   6
    Residuals in seconds of arc
    190930 T05  0.0   0.3-    190930 K19  0.4+  0.0     190930 K88  0.1+  0.3+
    190930 T05  0.2+  0.4+    190930 K63  0.7+  0.2+    190930 033  0.0   0.1-
    190930 T05  0.3-  0.1+    190930 I93  0.0   0.0     190930 033  0.2-  0.2-
    190930 T05  0.3+  0.7-    190930 K19  0.1-  1.0+    190930 033  0.3+  0.0
    190930 595  0.2-  0.0     190930 K63  0.1-  0.4-    191001 W34  0.4-  0.2-
    190930 K61  0.2+  0.0     190930 C95  0.3+  0.4-    191001 W34  0.1-  0.4-
    190930 595  0.1+  0.2-    190930 I93  0.1-  0.1-    191001 W34  0.6+  1.0-
    190930 K61  0.2+  0.4+    190930 586  0.2-  0.0     191001 W34  0.3-  0.1-
    190930 595  0.3+  0.0     190930 586  0.3+  0.3-    191001 H21  0.3+  0.4+
    190930 595  0.2-  0.0     190930 586  0.1-  0.2+    191001 W34  0.1+  0.3-
    190930 K61  0.4+  0.2-    190930 586  0.4-  0.2+    191001 H21  0.2+  0.4+
    190930 595  0.3+  0.3+    190930 586  0.7-  0.1-    191001 H21  0.2+  0.3+
    190930 595  0.1-  0.1+    190930 586  0.1-  0.0     191001 H21  0.3+  0.2+
    190930 C95  0.0   0.4-    190930 586  0.0   0.0     191001 I52  0.1+  0.2-
    190930 C95  0.0   0.1-    190930 586  0.4-  0.3-    191001 I52  0.2+  0.2+
    190930 C95  0.5-  0.0     190930 587  0.6-  0.1-    191001 I52  0.3-  0.1-
    190930 I93  0.3-  0.1-    190930 587  0.4-  0.1-    191001 654  0.3+  0.0
    190930 K19  0.3+  0.2+    190930 587  0.8-  0.5-    191001 654  0.3+  0.2+
    190930 K63  0.1+  0.2+    190930 C77  0.3-  0.0     191001 K88  0.0   0.2+
    190930 C95  0.2-  0.4+    190930 C77  0.2-  0.2+    191001 K88  0.1-  0.2+
    190930 K63  0.4+  0.1+    190930 C77  0.5-  0.1-    191001 K88  0.0   0.2+
    190930 K19  0.4+  0.1+    190930 203  0.3+  0.2+    191001 104  0.1-  0.2-
    190930 K63  0.5-  0.0     190930 203  0.1+  0.1-    191001 104  0.0   0.4-
    190930 I93  0.2-  0.2-    190930 K88  0.2+  0.3+    191001 104  0.0   0.1-
    190930 K19  0.3+  0.3+    190930 203  0.1-  0.1+
    190930 C95  0.1-  0.1+    190930 K88  0.4+  0.3+
    
    Ephemeris:
    2019 SF9                 a,e,i = 1.06, 0.09, 27                  q = 0.9584
    Date    TT    R. A. (2000) Decl.     Delta      r    Elong.  Phase     V
    2019 09 01    04 55 59.8 -53 01 55   0.2209  1.0492    94.3    73.6    23.8
    ...
    2019 09 16    04 53 55.0 -52 00 58   0.1037  1.0257    98.3    76.0    22.2
    ...
    2019 09 24    04 33 04.3 -48 38 54   0.03855 1.0136   104.3    73.6    19.9
    ...
    2019 09 30    20 10 07.1 +62 12 40   0.01248 1.0049   104.4    74.9    17.5
    2019 10 01    18 48 16.6 +60 46 38   0.02027 1.0035    95.2    83.7    18.9
    2019 10 02    18 16 01.7 +59 14 43   0.02832 1.0020    91.0    87.4    19.7
    ...
    2019 10 08    17 31 37.1 +55 57 57   0.07720 0.9938    83.6    91.9    22.1
    ...
    2019 10 16    17 20 10.2 +54 54 24   0.1413  0.9837    80.5    91.4    23.4
    ...
    2019 10 31    17 10 57.7 +53 56 11   0.2536  0.9683    77.1    88.2    24.5
    
    A. U. Tomatic                (C) Copyright 2019 MPC           M.P.E.C. 2019-T22
    


    Read MPEC 2019-T21 Read MPEC 2019-T23


    MPEC number:

    Enter an MPEC number in one of the following forms:

    • 1997-B01 (the full form)
    • J97B01 (the packed version of the full form)
    • B01 (the abbreviated form)